OBJECT AB, 57191

Orbit data source: Space-Track

You're viewing an uncataloged RSO

Recently launched and/or uncataloged RSOs may have evolving metadata. Metadata may include the following, but is not limited to: Owner, Manufacturer, Bus, Motor, and Mission.

OBJECT AB, 57191 is a satellite in SSO that was launched on Tue, 27 Jun 2023 UTC via a SOYUZ-2-1B launch vehicle from the Vostochny Cosmodrome (VOSTO). Unknown objects in Earth's orbit typically refer to objects detected orbiting the Earth but have not yet been identified or cataloged. These objects could be anything from previously untracked satellites, spent rocket stages, debris from satellite collisions, or even natural meteoroids temporarily captured by Earth's gravity.

Loading next visibility...
Identifier
57191, 2023-091AB
Orbit
SSO
Country
Flag of TBDTBD
Related business
Manufacturer
STTs
Mission
Operational Amateur Technology
Bus & Motor
CUBESAT 3U, Unknown motor
Mass
5.07 kg wet, 5.07 kg dry
Launch date (UTC)
2023-06-27 (3 years ago)
Launch vehicle
SOYUZ-2-1B
Launch site
Vostochny Cosmodrome (VOSTO)
Object type
Unknown
Shape & HBR
Box, 0.2 m
Radar Cross Section
0.035 m², Medium (>0.1 m² and < 1m²)

Expand to show TLE details & history
Last TLE update: 6 hours ago

TLE from 6 hours ago
0 OBJECT AB
1 57191U 23091AB  26220.17144749  .00002375  00000-0  11473-3 0  9993
2 57191  97.5013 277.6264 0013832 312.3490  47.6572 15.19557325171848
Epoch: 2026-08-08T04:06Z
TLE epoch observation values (Epoch: 2026-08-08T04:06:53.063Z)
Latitude
-0.00004°
Longitude
-100.78131°
Altitude
503.855 km
Speed
7.616 km/s
True Right ascension
18h 30m 30s
True Declination
0° 00' 00"
Sunlit
Object was in full shadow at epoch
Visualization orbit readout
Latitude
Unknown
Longitude
Unknown
Altitude
Unknown
Speed
Unknown
Apparent Right ascension
Unknown
Apparent Declination
Unknown
Sunlit
N/A
Visualization observer readout
Local Sidereal Time
00:14:23
Azimuth
Unknown
Elevation
Unknown
Doppler factor
Unknown
Orbital elements
Apogee altitude
513.668 km
Perigee altitude
494.628 km
Semi-major axis
6,882.285 km
Eccentricity
0.00138
Inclination
97.5013°
RAAN
277.6264°
Arg. of periapsis
312.349°
True anomaly
47.77449°
Mean anomaly
47.6572°
Eccentric anomaly
47.71583°
Mean motion
3.80141 °/min
Orbital period
94.7 mins
BSTAR
0.00011473
Loading maneuver chart data...
Computing Atmospheric mass density...
Loading historical data...
Loading historical data...
Loading historical data...
Loading historical data...
Loading historical data...
Loading historical data...
Loading historical data...

Documentation

Showing up to 5 results
|